Location: Grange Verzio
(44.5000°N, 6.9833°E)
Time: 07:34:13
(UTC+00:00)

Cosmos 2333 - Pass Details

Date: 01 February 2023
Orbit: 828 x 867 km, 70.9° (Epoch: 21 March)

Event Time Altitude Azimuth Distance (km) Brightness Sun altitude
Rises 18:58:34 0° 200° (SSW) 3,356 7.6 -24.7°
Reaches altitude 10° 19:00:59 10° 199° (SSW) 2,429 6.8 -25.2°
Maximum altitude 19:06:32 80° 114° (ESE) 853 4.0 -26.2°
Enters shadow 19:06:52 76° 71° (ENE) 864 4.0 -26.2°
